User: anonymous   Login
Location: Unspecified
(0.0000°N, 0.0000°E)
Time: 04:13:15
(UTC+02:00)
Language:

Gurwin Techsat 1B - Orbit

View from above orbital plane
View from above orbital plane
View from above satellite
View from above satellite

Ground track
Ground track

The orbit data is extracted from the following two-line orbital elements,

1 25397U 98043D   18110.40028172 +.00000006 +00000-0 +21529-4 0  9994
2 25397 098.6456 051.8091 0001543 141.4134 218.7155 14.23643728027289
Epoch (UTC): 20 April 2018 09:36:24
Eccentricity: 0.0001543
inclination: 98.6456°
perigee height: 812 km
apogee height: 814 km
right ascension of ascending node: 51.8091°
argument of perigee: 141.4134°
revolutions per day: 14.23643728
mean anomaly at epoch: 218.7155°
orbit number at epoch: 2728

The dashed part of the orbit path shows where the satellite is in the earth's shadow,  

DLR